This is the latest recevied weather packets stored in our database for station/object K8WEH. If no packets are shown the sender has not sent any weather packets the latest 10 day(s).
| Time | Temp. | Humidity | Pressure | Rain* | Wind** | Luminosity | Snow |
|---|---|---|---|---|---|---|---|
| 1777919447 | 20° C | 58% | 1011.1 hPa | 0 mm | - | - | - |
| 1777919145 | 20° C | 61% | 1011.3 hPa | 0 mm | - | - | - |
| 1777918843 | 19.44° C | 64% | 1011.4 hPa | 0 mm | - | - | - |
| 1777918545 | 18.89° C | 65% | 1011.4 hPa | 0 mm | - | - | - |
| 1777918243 | 18.89° C | 64% | 1011.5 hPa | 0 mm | - | - | - |
| 1777917942 | 18.33° C | 69% | 1011.7 hPa | 0 mm | - | - | - |
| 1777917642 | 17.78° C | 68% | 1011.8 hPa | 0 mm | - | - | - |
| 1777917341 | 17.22° C | 70% | 1011.5 hPa | 0 mm | - | - | - |
| 1777917041 | 16.67° C | 71% | 1011.8 hPa | 0 mm | - | - | - |
| 1777916740 | 16.67° C | 71% | 1011.6 hPa | 0 mm | - | - | - |
| 1777916440 | 16.67° C | 70% | 1011.5 hPa | 0 mm | - | - | - |
| 1777916140 | 17.22° C | 69% | 1011.3 hPa | 0 mm | - | - | - |
| 1777915839 | 17.22° C | 69% | 1012 hPa | 0 mm | - | - | - |
| 1777915538 | 17.78° C | 67% | 1012.4 hPa | 0 mm | - | - | - |
| 1777915239 | 17.78° C | 66% | 1012 hPa | 0 mm | - | - | - |
| 1777914937 | 18.33° C | 63% | 1012.2 hPa | 0 mm | - | - | - |
| 1777914638 | 18.33° C | 61% | 1012.3 hPa | 0 mm | - | - | - |
| 1777914337 | 19.44° C | 60% | 1012.3 hPa | 0 mm | - | - | - |
| 1777914043 | 19.44° C | 62% | 1012.3 hPa | 0 mm | - | - | - |
| 1777913738 | 18.89° C | 62% | 1012 hPa | 0 mm | - | - | - |
| 1777913437 | 18.89° C | 59% | 1011.9 hPa | 0 mm | - | - | - |
| 1777913139 | 19.44° C | 60% | 1011.8 hPa | 0 mm | - | - | - |
| 1777912838 | 19.44° C | 59% | 1011.9 hPa | 0 mm | - | - | - |
| 1777912534 | 19.44° C | 63% | 1011.9 hPa | 0 mm | - | - | - |
| 1777912233 | 18.89° C | 63% | 1011.9 hPa | 0 mm | - | - | - |
* Rain latest hour (hover to see other rain measurements)
** Current wind speed in m/s (hover to see current wind gust speed)